This demonstration page uses our WeatherBlox Daily Observations layout. Learn more.

Left ArrowRight Arrow

39.29038, -76.61219

Hourly Observations for July 31, 2021

Temp ( °F °C ) Dew Point ( °F °C ) Humidity (%) Winds ( mph kmh ) Pressure ( in mb ) Visibility ( mi km ) Precip ( " mm )
12:54 am 00:54 Mostly Clear 72 22.2 57 13.9 59 59 WNW 3 6 29.97 1015 10 16 N/A
1:54 am 01:54 Mostly Clear 72 22.2 54 12.2 53 53 NNE 8 13 29.97 1015 10 16 N/A
2:54 am 02:54 Partly Cloudy 71 21.7 54 12.2 55 55 NE 7 11 29.99 1016 10 16 N/A
3:54 am 03:54 Partly Cloudy 69 20.6 53 11.7 57 57 NE 7 11 29.98 1015 10 16 N/A
4:54 am 04:54 Partly Cloudy 68 20 54 12.2 61 61 NNE 7 11 29.99 1016 10 16 N/A
5:54 am 05:54 Mostly Cloudy 69 20.6 54 12.2 59 59 NNE 7 11 30.00 1016 10 16 N/A
6:54 am 06:54 Mostly Cloudy 68 20 53 11.7 59 59 NNE 8 13 30.03 1017 10 16 N/A
7:54 am 07:54 Mostly Cloudy 69 20.6 53 11.7 57 57 NNE 7 11 30.04 1017 10 16 N/A
8:54 am 08:54 Mostly Cloudy 70 21.1 55 12.8 59 59 ENE 8 13 30.03 1017 10 16 N/A
9:54 am 09:54 Mostly Cloudy 71 21.7 55 12.8 57 57 ENE 5 7 30.04 1017 10 16 N/A
10:54 am 10:54 Mostly Cloudy 73 22.8 55 12.8 53 53 SE 3 6 30.04 1017 10 16 N/A
11:54 am 11:54 Partly Cloudy 76 24.4 54 12.2 47 47 VRB 5 7 30.02 1017 10 16 N/A
12:54 pm 12:54 Partly Cloudy 77 25 55 12.8 47 47 VRB 3 6 29.99 1016 10 16 N/A
1:54 pm 13:54 Partly Cloudy 79 26.1 56 13.3 45 45 ESE 5 7 29.97 1015 10 16 N/A
2:54 pm 14:54 Mostly Cloudy 82 27.8 57 13.9 42 42 SW 7 11 29.96 1015 10 16 N/A
3:54 pm 15:54 Mostly Cloudy 83 28.3 56 13.3 40 40 WSW 10 17 29.95 1014 10 16 N/A
4:54 pm 16:54 Mostly Cloudy 82 27.8 56 13.3 41 41 VRB 5 7 29.93 1014 10 16 N/A
5:54 pm 17:54 Mostly Cloudy 81 27.2 57 13.9 44 44 SSW 5 7 29.93 1013 10 16 N/A
6:54 pm 18:54 Mostly Cloudy 77 25 59 15 54 54 SSE 5 7 29.93 1013 10 16 N/A
7:54 pm 19:54 Mostly Cloudy 75 23.9 59 15 58 58 SSE 5 7 29.92 1013 10 16 N/A
8:54 pm 20:54 Mostly Cloudy 74 23.3 60 15.6 62 62 SSE 3 6 29.92 1013 10 16 N/A
9:54 pm 21:54 Cloudy 73 22.8 60 15.6 64 64 VRB 5 7 29.94 1014 10 16 N/A
10:54 pm 22:54 Mostly Cloudy 73 22.8 60 15.6 64 64 S 3 6 29.94 1014 10 16 N/A
11:54 pm 23:54 Mostly Cloudy 73 22.8 61 16.1 66 66 N N/A 29.93 1014 10 16 N/A

Powered by AerisWeather